Location: Newark
(48.8656°N, 2.3211°E)
Time: 08:12:33
(UTC+00:00)

Envisat - Pass Details

Date: 20 February 2019
Orbit: 764 x 766 km, 98.1° (Epoch: 23 October)

Event Time Altitude Azimuth Distance (km) Brightness Sun altitude
Rises 05:53:38 0° 31° (NNE) 3,242 6.6 -10.0°
Reaches altitude 10° 05:57:26 10° 60° (ENE) 2,309 6.4 -9.4°
Maximum altitude 05:59:35 13° 85° (E) 2,130 6.8 -9.1°
Drops below altitude 10° 06:01:43 10° 111° (ESE) 2,302 7.0 -8.7°
Sets 06:05:29 0° 140° (SE) 3,221 7.0 -8.1°
